Time,TemperatureF,DewpointF,PressureIn,WindDirection,WindDirectionDegrees,WindSpeedMPH,WindSpeedGustMPH,Humidity,HourlyPrecipIn,Conditions,Clouds,dailyrainin,SoftwareType,DateUTC
2013-02-27 00:00:00,55.6,47.8,29.87,NNW,338,3.4,7.2,75,0.00,,,0.00,WUHU216HW,2013-02-27 06:00:00,
2013-02-27 00:05:00,55.4,47.3,29.87,West,270,0.7,5.8,74,0.00,,,0.00,WUHU216HW,2013-02-27 06:05:00,
2013-02-27 00:10:00,55.3,47.1,29.87,NW,315,1.1,6.3,74,0.00,,,0.00,WUHU216HW,2013-02-27 06:10:00,
2013-02-27 00:15:00,55.1,46.6,29.87,NNE,23,2.7,7.6,73,0.00,,,0.00,WUHU216HW,2013-02-27 06:15:00,
2013-02-27 00:20:00,54.9,46.5,29.87,NW,315,3.1,7.6,73,0.00,,,0.00,WUHU216HW,2013-02-27 06:20:00,
2013-02-27 00:25:00,54.7,45.9,29.88,NNW,338,3.4,6.5,72,0.00,,,0.00,WUHU216HW,2013-02-27 06:25:00,
2013-02-27 00:30:00,54.5,45.7,29.88,NNW,338,2.9,5.6,72,0.00,,,0.00,WUHU216HW,2013-02-27 06:30:00,
2013-02-27 00:35:00,54.5,46.1,29.89,NNW,338,4.9,6.3,73,0.00,,,0.00,WUHU216HW,2013-02-27 06:35:00,
2013-02-27 00:40:00,54.4,45.9,29.89,NW,315,0.9,6.3,73,0.00,,,0.00,WUHU216HW,2013-02-27 06:40:00,
2013-02-27 00:45:00,54.2,45.7,29.89,WNW,293,1.1,5.4,73,0.00,,,0.00,WUHU216HW,2013-02-27 06:45:00,
2013-02-27 00:50:00,54.0,45.6,29.89,WNW,293,2.0,5.4,73,0.00,,,0.00,WUHU216HW,2013-02-27 06:50:00,
2013-02-27 00:55:00,53.8,45.7,29.89,North,0,0.9,5.4,74,0.00,,,0.00,WUHU216HW,2013-02-27 06:55:00,
2013-02-27 01:00:00,53.6,45.5,29.90,NNW,338,3.1,3.1,74,0.00,,,0.00,WUHU216HW,2013-02-27 07:00:00,
2013-02-27 01:05:00,53.6,45.9,29.90,NNW,338,1.6,4.3,75,0.00,,,0.00,WUHU216HW,2013-02-27 07:05:00,
2013-02-27 01:10:00,53.5,45.7,29.89,NNW,338,0.7,4.3,75,0.00,,,0.00,WUHU216HW,2013-02-27 07:10:00,
2013-02-27 01:15:00,53.5,45.7,29.90,NW,315,2.2,4.0,75,0.00,,,0.00,WUHU216HW,2013-02-27 07:15:00,
2013-02-27 01:20:00,53.3,45.5,29.90,NE,45,1.1,4.3,75,0.00,,,0.00,WUHU216HW,2013-02-27 07:20:00,
2013-02-27 01:25:00,53.3,45.5,29.90,NNW,338,1.6,4.3,75,0.00,,,0.00,WUHU216HW,2013-02-27 07:25:00,
2013-02-27 01:30:00,53.1,45.4,29.90,NNW,338,2.5,3.8,75,0.00,,,0.00,WUHU216HW,2013-02-27 07:30:00,
2013-02-27 01:35:00,53.1,45.4,29.90,NNW,338,1.6,3.8,75,0.00,,,0.00,WUHU216HW,2013-02-27 07:35:00,
2013-02-27 01:40:00,52.9,45.2,29.90,NNW,338,1.3,4.0,75,0.00,,,0.00,WUHU216HW,2013-02-27 07:40:00,
2013-02-27 01:45:00,52.9,45.2,29.90,WNW,293,0.7,4.0,75,0.00,,,0.00,WUHU216HW,2013-02-27 07:45:00,
2013-02-27 01:50:00,52.7,45.0,29.90,NNW,338,2.7,2.7,75,0.00,,,0.00,WUHU216HW,2013-02-27 07:50:00,
2013-02-27 01:55:00,52.6,44.9,29.91,NNW,338,1.8,3.1,75,0.00,,,0.00,WUHU216HW,2013-02-27 07:55:00,
2013-02-27 02:00:00,52.6,44.9,29.90,NNE,23,1.8,3.8,75,0.00,,,0.00,WUHU216HW,2013-02-27 08:00:00,
2013-02-27 02:05:00,52.4,45.1,29.90,NNE,23,3.4,4.0,76,0.00,,,0.00,WUHU216HW,2013-02-27 08:05:00,
2013-02-27 02:10:00,52.2,44.9,29.91,NNE,23,4.0,7.6,76,0.00,,,0.00,WUHU216HW,2013-02-27 08:10:00,
2013-02-27 02:15:00,52.2,44.9,29.90,North,0,1.1,7.6,76,0.00,,,0.00,WUHU216HW,2013-02-27 08:15:00,
2013-02-27 02:20:00,52.2,44.9,29.91,NE,45,1.8,4.3,76,0.00,,,0.00,WUHU216HW,2013-02-27 08:20:00,
2013-02-27 02:25:00,52.0,44.7,29.90,North,0,0.7,2.9,76,0.00,,,0.00,WUHU216HW,2013-02-27 08:25:00,
2013-02-27 02:30:00,52.0,44.7,29.90,NNE,23,1.8,2.9,76,0.00,,,0.00,WUHU216HW,2013-02-27 08:30:00,
2013-02-27 02:35:00,51.8,44.6,29.90,NNE,23,1.6,2.9,76,0.00,,,0.00,WUHU216HW,2013-02-27 08:35:00,
2013-02-27 02:40:00,51.8,44.6,29.90,North,0,1.1,2.2,76,0.00,,,0.00,WUHU216HW,2013-02-27 08:40:00,
2013-02-27 02:45:00,51.7,44.4,29.90,North,0,2.0,2.5,76,0.00,,,0.00,WUHU216HW,2013-02-27 08:45:00,
2013-02-27 02:50:00,51.5,44.2,29.90,North,0,1.6,2.5,76,0.00,,,0.00,WUHU216HW,2013-02-27 08:50:00,
2013-02-27 02:55:00,51.5,44.6,29.89,North,0,2.5,3.4,77,0.00,,,0.00,WUHU216HW,2013-02-27 08:55:00,
2013-02-27 03:00:00,51.3,44.4,29.90,NNW,338,1.6,3.4,77,0.00,,,0.00,WUHU216HW,2013-02-27 09:00:00,
2013-02-27 03:05:00,51.1,44.2,29.90,North,0,2.5,3.4,77,0.00,,,0.00,WUHU216HW,2013-02-27 09:05:00,
2013-02-27 03:10:00,51.1,44.2,29.90,North,0,3.8,3.8,77,0.00,,,0.00,WUHU216HW,2013-02-27 09:10:00,
2013-02-27 03:15:00,50.9,44.0,29.90,North,0,0.9,3.8,77,0.00,,,0.00,WUHU216HW,2013-02-27 09:15:00,
2013-02-27 03:20:00,50.8,44.1,29.91,NNE,23,2.5,3.8,78,0.00,,,0.00,WUHU216HW,2013-02-27 09:20:00,
2013-02-27 03:25:00,50.8,44.1,29.90,North,0,1.8,2.5,78,0.00,,,0.00,WUHU216HW,2013-02-27 09:25:00,
2013-02-27 03:30:00,50.6,43.9,29.91,North,0,1.8,3.1,78,0.00,,,0.00,WUHU216HW,2013-02-27 09:30:00,
2013-02-27 03:35:00,50.4,43.7,29.90,NNE,23,1.8,3.1,78,0.00,,,0.00,WUHU216HW,2013-02-27 09:35:00,
2013-02-27 03:40:00,50.2,43.9,29.90,NNE,23,1.3,2.7,79,0.00,,,0.00,WUHU216HW,2013-02-27 09:40:00,
2013-02-27 03:45:00,50.0,43.7,29.90,NNE,23,2.9,3.8,79,0.00,,,0.00,WUHU216HW,2013-02-27 09:45:00,
2013-02-27 03:50:00,50.0,43.7,29.90,NNE,23,2.7,3.8,79,0.00,,,0.00,WUHU216HW,2013-02-27 09:50:00,
2013-02-27 03:55:00,49.9,43.9,29.90,NNE,23,3.4,3.4,80,0.00,,,0.00,WUHU216HW,2013-02-27 09:55:00,
2013-02-27 04:00:00,49.7,43.7,29.90,NNE,23,1.6,3.4,80,0.00,,,0.00,WUHU216HW,2013-02-27 10:00:00,
2013-02-27 04:05:00,49.7,43.7,29.90,NNE,23,1.1,3.4,80,0.00,,,0.00,WUHU216HW,2013-02-27 10:05:00,
2013-02-27 04:10:00,49.5,43.6,29.91,NNE,23,2.5,3.4,80,0.00,,,0.00,WUHU216HW,2013-02-27 10:10:00,
2013-02-27 04:15:00,49.3,43.4,29.91,North,0,1.6,2.7,80,0.00,,,0.00,WUHU216HW,2013-02-27 10:15:00,
2013-02-27 04:20:00,49.3,43.4,29.90,NNE,23,1.6,2.5,80,0.00,,,0.00,WUHU216HW,2013-02-27 10:20:00,
2013-02-27 04:25:00,49.1,43.2,29.90,North,0,2.2,2.5,80,0.00,,,0.00,WUHU216HW,2013-02-27 10:25:00,
2013-02-27 04:30:00,49.1,43.2,29.91,NNE,23,1.8,2.2,80,0.00,,,0.00,WUHU216HW,2013-02-27 10:30:00,
2013-02-27 04:35:00,49.1,43.5,29.91,NNE,23,2.0,2.2,81,0.00,,,0.00,WUHU216HW,2013-02-27 10:35:00,
2013-02-27 04:40:00,49.0,43.4,29.91,North,0,1.3,2.0,81,0.00,,,0.00,WUHU216HW,2013-02-27 10:40:00,
2013-02-27 04:45:00,49.0,43.4,29.91,North,0,0.7,2.0,81,0.00,,,0.00,WUHU216HW,2013-02-27 10:45:00,
2013-02-27 04:50:00,48.8,43.2,29.91,North,0,1.1,1.6,81,0.00,,,0.00,WUHU216HW,2013-02-27 10:50:00,
2013-02-27 04:55:00,48.6,43.0,29.92,North,0,1.6,1.6,81,0.00,,,0.00,WUHU216HW,2013-02-27 10:55:00,
2013-02-27 05:00:00,48.4,42.9,29.92,NNE,23,1.8,2.0,81,0.00,,,0.00,WUHU216HW,2013-02-27 11:00:00,
2013-02-27 05:05:00,48.2,42.7,29.92,North,0,1.6,2.0,81,0.00,,,0.00,WUHU216HW,2013-02-27 11:05:00,
2013-02-27 05:10:00,48.1,42.5,29.91,North,0,1.6,2.2,81,0.00,,,0.00,WUHU216HW,2013-02-27 11:10:00,
2013-02-27 05:15:00,47.9,42.3,29.92,NNE,23,1.8,2.5,81,0.00,,,0.00,WUHU216HW,2013-02-27 11:15:00,
2013-02-27 05:20:00,47.9,42.3,29.92,North,0,1.6,2.7,81,0.00,,,0.00,WUHU216HW,2013-02-27 11:20:00,
2013-02-27 05:25:00,47.9,42.3,29.92,North,0,2.2,3.4,81,0.00,,,0.00,WUHU216HW,2013-02-27 11:25:00,
2013-02-27 05:30:00,47.9,42.3,29.93,NNE,23,1.8,3.4,81,0.00,,,0.00,WUHU216HW,2013-02-27 11:30:00,
2013-02-27 05:35:00,47.9,42.3,29.92,North,0,1.6,3.4,81,0.00,,,0.00,WUHU216HW,2013-02-27 11:35:00,
2013-02-27 05:40:00,47.9,42.7,29.92,North,0,4.0,4.0,82,0.00,,,0.00,WUHU216HW,2013-02-27 11:40:00,
2013-02-27 05:45:00,47.9,42.7,29.92,NNE,23,1.6,4.0,82,0.00,,,0.00,WUHU216HW,2013-02-27 11:45:00,
2013-02-27 05:50:00,47.9,42.7,29.91,NE,45,3.1,4.3,82,0.00,,,0.00,WUHU216HW,2013-02-27 11:50:00,
2013-02-27 05:55:00,48.1,42.8,29.92,NE,45,2.9,4.3,82,0.00,,,0.00,WUHU216HW,2013-02-27 11:55:00,
2013-02-27 06:00:00,48.2,42.9,29.92,NE,45,1.8,4.0,82,0.00,,,0.00,WUHU216HW,2013-02-27 12:00:00,
2013-02-27 06:05:00,48.2,42.9,29.93,NE,45,1.1,3.1,82,0.00,,,0.00,WUHU216HW,2013-02-27 12:05:00,
2013-02-27 06:10:00,48.2,42.9,29.93,NNE,23,1.6,2.0,82,0.00,,,0.00,WUHU216HW,2013-02-27 12:10:00,
2013-02-27 06:15:00,48.2,42.9,29.93,North,0,2.0,3.1,82,0.00,,,0.00,WUHU216HW,2013-02-27 12:15:00,
2013-02-27 06:20:00,48.2,42.9,29.93,North,0,0.9,3.1,82,0.00,,,0.00,WUHU216HW,2013-02-27 12:20:00,
2013-02-27 06:25:00,48.4,43.5,29.93,North,0,1.1,2.5,83,0.00,,,0.00,WUHU216HW,2013-02-27 12:25:00,
2013-02-27 06:30:00,48.6,43.7,29.93,North,0,1.3,1.8,83,0.00,,,0.00,WUHU216HW,2013-02-27 12:30:00,
2013-02-27 06:35:00,48.6,43.7,29.93,North,0,2.5,2.7,83,0.00,,,0.00,WUHU216HW,2013-02-27 12:35:00,
2013-02-27 06:40:00,48.8,43.8,29.94,NNE,23,2.2,3.4,83,0.00,,,0.00,WUHU216HW,2013-02-27 12:40:00,
2013-02-27 06:45:00,49.0,44.0,29.94,NNE,23,0.7,3.4,83,0.00,,,0.00,WUHU216HW,2013-02-27 12:45:00,
2013-02-27 06:50:00,49.3,44.0,29.94,NNW,338,0.9,3.1,82,0.00,,,0.00,WUHU216HW,2013-02-27 12:50:00,
2013-02-27 06:55:00,49.3,44.0,29.94,NNE,23,0.9,2.9,82,0.00,,,0.00,WUHU216HW,2013-02-27 12:55:00,
2013-02-27 07:00:00,49.5,44.2,29.94,NNE,23,0.9,2.9,82,0.00,,,0.00,WUHU216HW,2013-02-27 13:00:00,
2013-02-27 07:05:00,49.7,44.4,29.95,North,0,0.4,2.9,82,0.00,,,0.00,WUHU216HW,2013-02-27 13:05:00,
2013-02-27 07:10:00,49.7,44.4,29.96,NNW,338,1.1,2.9,82,0.00,,,0.00,WUHU216HW,2013-02-27 13:10:00,
2013-02-27 07:15:00,50.0,44.7,29.95,North,0,1.8,1.8,82,0.00,,,0.00,WUHU216HW,2013-02-27 13:15:00,
2013-02-27 07:20:00,50.0,44.4,29.96,North,0,1.1,1.8,81,0.00,,,0.00,WUHU216HW,2013-02-27 13:20:00,
2013-02-27 07:25:00,50.2,44.6,29.96,North,0,1.3,2.2,81,0.00,,,0.00,WUHU216HW,2013-02-27 13:25:00,
2013-02-27 07:30:00,50.4,44.5,29.96,North,0,1.1,2.2,80,0.00,,,0.00,WUHU216HW,2013-02-27 13:30:00,
2013-02-27 07:35:00,50.6,44.6,29.96,North,0,2.5,4.0,80,0.00,,,0.00,WUHU216HW,2013-02-27 13:35:00,
2013-02-27 07:40:00,50.8,44.8,29.96,NNE,23,3.4,4.5,80,0.00,,,0.00,WUHU216HW,2013-02-27 13:40:00,
2013-02-27 07:45:00,50.8,44.5,29.96,NNE,23,1.8,4.5,79,0.00,,,0.00,WUHU216HW,2013-02-27 13:45:00,
2013-02-27 07:50:00,50.9,44.6,29.96,NNE,23,2.9,4.0,79,0.00,,,0.00,WUHU216HW,2013-02-27 13:50:00,
2013-02-27 07:55:00,51.1,44.5,29.97,North,0,1.8,4.5,78,0.00,,,0.00,WUHU216HW,2013-02-27 13:55:00,
2013-02-27 08:00:00,51.3,44.6,29.97,NNE,23,2.2,4.5,78,0.00,,,0.00,WUHU216HW,2013-02-27 14:00:00,
2013-02-27 08:05:00,51.3,44.4,29.98,NNW,338,1.1,3.4,77,0.00,,,0.00,WUHU216HW,2013-02-27 14:05:00,
2013-02-27 08:10:00,51.5,44.2,29.98,NW,315,1.8,2.7,76,0.00,,,0.00,WUHU216HW,2013-02-27 14:10:00,
2013-02-27 08:15:00,51.7,44.4,29.98,NNE,23,1.8,2.7,76,0.00,,,0.00,WUHU216HW,2013-02-27 14:15:00,
2013-02-27 08:20:00,51.8,44.6,29.98,NNW,338,2.2,2.5,76,0.00,,,0.00,WUHU216HW,2013-02-27 14:20:00,
2013-02-27 08:25:00,52.0,44.4,29.98,NNW,338,1.3,3.8,75,0.00,,,0.00,WUHU216HW,2013-02-27 14:25:00,
2013-02-27 08:30:00,52.2,44.6,29.98,NNE,23,1.3,3.8,75,0.00,,,0.00,WUHU216HW,2013-02-27 14:30:00,
2013-02-27 08:35:00,52.2,44.6,29.99,NE,45,3.8,4.9,75,0.00,,,0.00,WUHU216HW,2013-02-27 14:35:00,
2013-02-27 08:40:00,52.6,44.9,29.99,NE,45,2.7,5.8,75,0.00,,,0.00,WUHU216HW,2013-02-27 14:40:00,
2013-02-27 08:45:00,52.6,44.9,29.99,NNE,23,4.5,5.8,75,0.00,,,0.00,WUHU216HW,2013-02-27 14:45:00,
2013-02-27 08:50:00,52.7,45.0,29.99,North,0,0.7,4.5,75,0.00,,,0.00,WUHU216HW,2013-02-27 14:50:00,
2013-02-27 08:55:00,52.9,44.8,29.99,NE,45,1.8,3.6,74,0.00,,,0.00,WUHU216HW,2013-02-27 14:55:00,
2013-02-27 09:00:00,53.1,45.0,29.99,ENE,68,3.8,3.8,74,0.00,,,0.00,WUHU216HW,2013-02-27 15:00:00,
2013-02-27 09:05:00,53.3,44.8,29.99,North,0,0.4,4.0,73,0.00,,,0.00,WUHU216HW,2013-02-27 15:05:00,
2013-02-27 09:10:00,53.6,45.5,29.99,NNE,23,0.7,4.0,74,0.00,,,0.00,WUHU216HW,2013-02-27 15:10:00,
2013-02-27 09:15:00,53.8,45.7,29.99,NNW,338,0.0,2.5,74,0.00,,,0.00,WUHU216HW,2013-02-27 15:15:00,
2013-02-27 09:20:00,54.2,46.1,29.99,East,90,0.7,2.0,74,0.00,,,0.00,WUHU216HW,2013-02-27 15:20:00,
2013-02-27 09:25:00,54.5,46.1,29.99,ENE,68,1.6,2.2,73,0.00,,,0.00,WUHU216HW,2013-02-27 15:25:00,
2013-02-27 09:30:00,54.7,45.9,29.99,NNW,338,1.1,2.2,72,0.00,,,0.00,WUHU216HW,2013-02-27 15:30:00,
2013-02-27 09:35:00,54.7,45.9,30.00,NE,45,0.7,2.2,72,0.00,,,0.00,WUHU216HW,2013-02-27 15:35:00,
2013-02-27 09:40:00,55.1,45.9,30.00,NE,45,1.8,1.8,71,0.00,,,0.00,WUHU216HW,2013-02-27 15:40:00,
2013-02-27 09:45:00,55.3,46.1,30.00,NNE,23,1.8,1.8,71,0.00,,,0.00,WUHU216HW,2013-02-27 15:45:00,
2013-02-27 09:50:00,55.4,45.9,30.00,West,270,1.1,3.1,70,0.00,,,0.00,WUHU216HW,2013-02-27 15:50:00,
2013-02-27 09:55:00,55.8,46.3,30.00,SW,225,2.5,3.1,70,0.00,,,0.00,WUHU216HW,2013-02-27 15:55:00,
2013-02-27 10:00:00,56.0,46.4,30.00,NW,315,1.1,2.7,70,0.00,,,0.00,WUHU216HW,2013-02-27 16:00:00,
2013-02-27 10:05:00,56.2,46.5,30.00,WNW,293,2.9,2.9,70,0.00,,,0.00,WUHU216HW,2013-02-27 16:05:00,
2013-02-27 10:10:00,56.3,46.3,30.00,NW,315,2.5,3.4,69,0.00,,,0.00,WUHU216HW,2013-02-27 16:10:00,
2013-02-27 10:15:00,56.5,46.9,30.00,SW,225,1.1,3.4,70,0.00,,,0.00,WUHU216HW,2013-02-27 16:15:00,
2013-02-27 10:20:00,57.1,47.3,30.00,SSW,203,2.9,4.3,70,0.00,,,0.00,WUHU216HW,2013-02-27 16:20:00,
2013-02-27 10:25:00,57.2,47.2,30.00,SSE,158,2.5,4.5,69,0.00,,,0.00,WUHU216HW,2013-02-27 16:25:00,
2013-02-27 10:30:00,57.4,47.4,30.00,SW,225,2.9,4.5,69,0.00,,,0.00,WUHU216HW,2013-02-27 16:30:00,
2013-02-27 10:35:00,57.6,47.5,30.00,SW,225,0.9,4.3,69,0.00,,,0.00,WUHU216HW,2013-02-27 16:35:00,
2013-02-27 10:40:00,58.0,47.9,30.00,WSW,248,2.2,4.3,69,0.00,,,0.00,WUHU216HW,2013-02-27 16:40:00,
2013-02-27 10:45:00,58.1,47.6,30.00,SW,225,1.8,4.3,68,0.00,,,0.00,WUHU216HW,2013-02-27 16:45:00,
2013-02-27 10:50:00,58.7,47.7,30.00,SW,225,6.0,6.0,67,0.00,,,0.00,WUHU216HW,2013-02-27 16:50:00,
2013-02-27 10:55:00,59.2,48.2,30.00,WSW,248,6.5,6.9,67,0.00,,,0.00,WUHU216HW,2013-02-27 16:55:00,
2013-02-27 11:00:00,59.6,48.3,30.00,WNW,293,1.6,7.6,66,0.00,,,0.00,WUHU216HW,2013-02-27 17:00:00,
2013-02-27 11:05:00,59.4,47.6,30.00,SW,225,2.5,7.6,65,0.00,,,0.00,WUHU216HW,2013-02-27 17:05:00,
2013-02-27 11:10:00,59.4,47.6,30.00,SW,225,1.1,5.4,65,0.00,,,0.00,WUHU216HW,2013-02-27 17:10:00,
2013-02-27 11:15:00,59.4,47.6,30.00,WSW,248,3.4,4.5,65,0.00,,,0.00,WUHU216HW,2013-02-27 17:15:00,
2013-02-27 11:20:00,59.6,47.8,30.00,WSW,248,1.6,4.5,65,0.00,,,0.00,WUHU216HW,2013-02-27 17:20:00,
2013-02-27 11:25:00,59.6,47.3,30.00,North,0,2.9,5.4,64,0.00,,,0.00,WUHU216HW,2013-02-27 17:25:00,
2013-02-27 11:30:00,59.8,47.5,29.99,NNW,338,1.6,5.4,64,0.00,,,0.00,WUHU216HW,2013-02-27 17:30:00,
2013-02-27 11:35:00,59.8,47.2,30.00,SW,225,1.3,5.4,63,0.00,,,0.00,WUHU216HW,2013-02-27 17:35:00,
2013-02-27 11:40:00,59.8,47.5,29.99,WSW,248,1.6,6.3,64,0.00,,,0.00,WUHU216HW,2013-02-27 17:40:00,
2013-02-27 11:45:00,59.9,47.7,29.99,SW,225,4.0,6.5,64,0.00,,,0.00,WUHU216HW,2013-02-27 17:45:00,
2013-02-27 11:50:00,60.1,47.9,29.99,WNW,293,3.4,6.5,64,0.00,,,0.00,WUHU216HW,2013-02-27 17:50:00,
2013-02-27 11:55:00,60.1,47.9,29.98,SW,225,6.3,6.3,64,0.00,,,0.00,WUHU216HW,2013-02-27 17:55:00,
2013-02-27 12:00:00,60.3,48.1,29.98,North,0,2.5,6.3,64,0.00,,,0.00,WUHU216HW,2013-02-27 18:00:00,
2013-02-27 12:05:00,60.7,48.4,29.98,SSW,203,3.6,6.3,64,0.00,,,0.00,WUHU216HW,2013-02-27 18:05:00,
2013-02-27 12:10:00,60.7,48.4,29.98,SW,225,2.0,4.7,64,0.00,,,0.00,WUHU216HW,2013-02-27 18:10:00,
2013-02-27 12:15:00,60.8,48.3,29.98,SW,225,4.0,5.6,63,0.00,,,0.00,WUHU216HW,2013-02-27 18:15:00,
2013-02-27 12:20:00,61.0,48.0,29.98,WSW,248,4.7,5.6,62,0.00,,,0.00,WUHU216HW,2013-02-27 18:20:00,
2013-02-27 12:25:00,60.8,47.8,29.98,SSW,203,1.6,6.5,62,0.00,,,0.00,WUHU216HW,2013-02-27 18:25:00,
2013-02-27 12:30:00,60.8,48.3,29.98,WSW,248,3.1,6.5,63,0.00,,,0.00,WUHU216HW,2013-02-27 18:30:00,
2013-02-27 12:35:00,61.4,48.7,29.98,North,0,3.4,4.5,63,0.00,,,0.00,WUHU216HW,2013-02-27 18:35:00,
2013-02-27 12:40:00,61.6,48.9,29.97,WSW,248,2.9,6.5,63,0.00,,,0.00,WUHU216HW,2013-02-27 18:40:00,
2013-02-27 12:45:00,61.7,48.6,29.97,SW,225,4.0,6.5,62,0.00,,,0.00,WUHU216HW,2013-02-27 18:45:00,
2013-02-27 12:50:00,61.7,48.6,29.97,WSW,248,1.8,6.5,62,0.00,,,0.00,WUHU216HW,2013-02-27 18:50:00,
2013-02-27 12:55:00,61.9,48.3,29.97,West,270,2.5,6.0,61,0.00,,,0.00,WUHU216HW,2013-02-27 18:55:00,
2013-02-27 13:00:00,61.9,48.3,29.97,SW,225,4.0,7.2,61,0.00,,,0.00,WUHU216HW,2013-02-27 19:00:00,
2013-02-27 13:05:00,62.1,48.5,29.96,SSW,203,3.4,7.2,61,0.00,,,0.00,WUHU216HW,2013-02-27 19:05:00,
2013-02-27 13:10:00,62.1,48.5,29.96,SW,225,4.3,4.7,61,0.00,,,0.00,WUHU216HW,2013-02-27 19:10:00,
2013-02-27 13:15:00,62.5,48.4,29.96,WSW,248,2.5,6.3,60,0.00,,,0.00,WUHU216HW,2013-02-27 19:15:00,
2013-02-27 13:20:00,62.5,48.4,29.96,WSW,248,2.5,6.3,60,0.00,,,0.00,WUHU216HW,2013-02-27 19:20:00,
2013-02-27 13:25:00,62.5,48.0,29.96,SW,225,4.3,5.4,59,0.00,,,0.00,WUHU216HW,2013-02-27 19:25:00,
2013-02-27 13:30:00,62.3,47.8,29.95,SSW,203,4.9,6.5,59,0.00,,,0.00,WUHU216HW,2013-02-27 19:30:00,
2013-02-27 13:35:00,62.3,48.2,29.95,SW,225,6.3,6.5,60,0.00,,,0.00,WUHU216HW,2013-02-27 19:35:00,
2013-02-27 13:40:00,62.1,47.6,29.95,SW,225,2.2,6.3,59,0.00,,,0.00,WUHU216HW,2013-02-27 19:40:00,
2013-02-27 13:45:00,62.1,47.6,29.95,SW,225,1.8,6.3,59,0.00,,,0.00,WUHU216HW,2013-02-27 19:45:00,
2013-02-27 13:50:00,62.1,47.6,29.95,WSW,248,3.4,4.0,59,0.00,,,0.00,WUHU216HW,2013-02-27 19:50:00,
2013-02-27 13:55:00,62.1,47.6,29.95,West,270,5.6,6.9,59,0.00,,,0.00,WUHU216HW,2013-02-27 19:55:00,
2013-02-27 14:00:00,62.1,47.6,29.95,NW,315,2.9,6.9,59,0.00,,,0.00,WUHU216HW,2013-02-27 20:00:00,
2013-02-27 14:05:00,62.1,47.2,29.95,WNW,293,5.1,6.7,58,0.00,,,0.00,WUHU216HW,2013-02-27 20:05:00,
2013-02-27 14:10:00,61.9,47.0,29.96,South,180,4.5,6.7,58,0.00,,,0.00,WUHU216HW,2013-02-27 20:10:00,
2013-02-27 14:15:00,61.9,47.0,29.96,West,270,3.6,6.3,58,0.00,,,0.00,WUHU216HW,2013-02-27 20:15:00,
2013-02-27 14:20:00,61.7,46.8,29.96,NW,315,2.5,6.3,58,0.00,,,0.00,WUHU216HW,2013-02-27 20:20:00,
2013-02-27 14:25:00,61.9,47.4,29.95,East,90,2.2,5.1,59,0.00,,,0.00,WUHU216HW,2013-02-27 20:25:00,
2013-02-27 14:30:00,61.7,46.8,29.95,NW,315,4.0,6.3,58,0.00,,,0.00,WUHU216HW,2013-02-27 20:30:00,
2013-02-27 14:35:00,61.6,47.2,29.95,SW,225,1.8,6.3,59,0.00,,,0.00,WUHU216HW,2013-02-27 20:35:00,
2013-02-27 14:40:00,61.7,47.4,29.94,WSW,248,6.3,6.3,59,0.00,,,0.00,WUHU216HW,2013-02-27 20:40:00,
2013-02-27 14:45:00,61.7,46.8,29.94,NW,315,5.4,8.5,58,0.00,,,0.00,WUHU216HW,2013-02-27 20:45:00,
2013-02-27 14:50:00,61.6,46.6,29.94,WNW,293,2.7,9.2,58,0.00,,,0.00,WUHU216HW,2013-02-27 20:50:00,
2013-02-27 14:55:00,61.6,46.6,29.94,NW,315,6.3,9.2,58,0.00,,,0.00,WUHU216HW,2013-02-27 20:55:00,
2013-02-27 15:00:00,61.4,46.0,29.94,WNW,293,5.4,8.5,57,0.00,,,0.00,WUHU216HW,2013-02-27 21:00:00,
2013-02-27 15:05:00,60.8,45.6,29.94,West,270,5.6,8.5,57,0.00,,,0.00,WUHU216HW,2013-02-27 21:05:00,
2013-02-27 15:10:00,60.7,45.8,29.94,WSW,248,2.5,8.7,58,0.00,,,0.00,WUHU216HW,2013-02-27 21:10:00,
2013-02-27 15:15:00,60.5,45.2,29.94,North,0,2.5,8.7,57,0.00,,,0.00,WUHU216HW,2013-02-27 21:15:00,
2013-02-27 15:20:00,60.1,44.8,29.94,NW,315,1.8,8.5,57,0.00,,,0.00,WUHU216HW,2013-02-27 21:20:00,
2013-02-27 15:25:00,60.1,45.3,29.94,WNW,293,4.7,8.5,58,0.00,,,0.00,WUHU216HW,2013-02-27 21:25:00,
2013-02-27 15:30:00,60.1,45.3,29.94,WNW,293,5.8,7.6,58,0.00,,,0.00,WUHU216HW,2013-02-27 21:30:00,
2013-02-27 15:35:00,60.1,45.3,29.94,NW,315,4.5,6.3,58,0.00,,,0.00,WUHU216HW,2013-02-27 21:35:00,
2013-02-27 15:40:00,59.9,45.1,29.94,NW,315,4.3,6.3,58,0.00,,,0.00,WUHU216HW,2013-02-27 21:40:00,
2013-02-27 15:45:00,59.8,45.5,29.94,NW,315,5.8,6.3,59,0.00,,,0.00,WUHU216HW,2013-02-27 21:45:00,
2013-02-27 15:50:00,59.6,45.7,29.93,NW,315,3.4,6.3,60,0.00,,,0.00,WUHU216HW,2013-02-27 21:50:00,
2013-02-27 15:55:00,59.6,45.7,29.94,NW,315,3.8,5.8,60,0.00,,,0.00,WUHU216HW,2013-02-27 21:55:00,
2013-02-27 16:00:00,59.4,45.5,29.93,NW,315,3.8,6.3,60,0.00,,,0.00,WUHU216HW,2013-02-27 22:00:00,
2013-02-27 16:05:00,59.4,45.5,29.93,NNW,338,1.8,6.3,60,0.00,,,0.00,WUHU216HW,2013-02-27 22:05:00,
2013-02-27 16:10:00,59.4,46.0,29.94,WSW,248,2.9,5.4,61,0.00,,,0.00,WUHU216HW,2013-02-27 22:10:00,
2013-02-27 16:15:00,59.4,46.0,29.94,NW,315,2.0,5.4,61,0.00,,,0.00,WUHU216HW,2013-02-27 22:15:00,
2013-02-27 16:20:00,59.8,45.9,29.94,NNW,338,1.8,6.3,60,0.00,,,0.00,WUHU216HW,2013-02-27 22:20:00,
2013-02-27 16:25:00,59.8,45.9,29.93,West,270,4.0,7.6,60,0.00,,,0.00,WUHU216HW,2013-02-27 22:25:00,
2013-02-27 16:30:00,59.6,46.2,29.93,NW,315,1.3,7.6,61,0.00,,,0.00,WUHU216HW,2013-02-27 22:30:00,
2013-02-27 16:35:00,59.8,46.7,29.93,WNW,293,5.6,5.6,62,0.00,,,0.00,WUHU216HW,2013-02-27 22:35:00,
2013-02-27 16:40:00,59.8,46.7,29.93,WSW,248,3.1,5.6,62,0.00,,,0.00,WUHU216HW,2013-02-27 22:40:00,
2013-02-27 16:45:00,59.8,46.7,29.93,NNE,23,1.8,6.5,62,0.00,,,0.00,WUHU216HW,2013-02-27 22:45:00,
2013-02-27 16:50:00,59.6,46.5,29.93,WSW,248,4.7,6.7,62,0.00,,,0.00,WUHU216HW,2013-02-27 22:50:00,
2013-02-27 16:55:00,59.4,46.4,29.93,NW,315,4.0,6.7,62,0.00,,,0.00,WUHU216HW,2013-02-27 22:55:00,
2013-02-27 17:00:00,59.2,46.2,29.93,NNW,338,4.3,6.0,62,0.00,,,0.00,WUHU216HW,2013-02-27 23:00:00,
2013-02-27 17:05:00,59.0,46.0,29.93,WSW,248,4.3,6.3,62,0.00,,,0.00,WUHU216HW,2013-02-27 23:05:00,
2013-02-27 17:10:00,58.9,45.8,29.93,NW,315,3.4,6.3,62,0.00,,,0.00,WUHU216HW,2013-02-27 23:10:00,
2013-02-27 17:15:00,58.7,46.1,29.93,WSW,248,1.3,6.3,63,0.00,,,0.00,WUHU216HW,2013-02-27 23:15:00,
2013-02-27 17:20:00,58.5,45.9,29.94,South,180,1.8,6.3,63,0.00,,,0.00,WUHU216HW,2013-02-27 23:20:00,
2013-02-27 17:25:00,58.3,45.7,29.93,West,270,5.6,6.3,63,0.00,,,0.00,WUHU216HW,2013-02-27 23:25:00,
2013-02-27 17:30:00,58.1,45.6,29.93,SW,225,1.6,5.6,63,0.00,,,0.00,WUHU216HW,2013-02-27 23:30:00,
2013-02-27 17:35:00,58.1,46.0,29.94,WNW,293,2.5,5.6,64,0.00,,,0.00,WUHU216HW,2013-02-27 23:35:00,
2013-02-27 17:40:00,58.0,45.8,29.94,NW,315,8.5,8.7,64,0.00,,,0.00,WUHU216HW,2013-02-27 23:40:00,
2013-02-27 17:45:00,57.8,45.6,29.93,WSW,248,5.1,8.7,64,0.00,,,0.00,WUHU216HW,2013-02-27 23:45:00,
2013-02-27 17:50:00,57.6,45.9,29.94,WNW,293,2.7,6.5,65,0.00,,,0.00,WUHU216HW,2013-02-27 23:50:00,
2013-02-27 17:55:00,57.6,45.9,29.94,WSW,248,4.0,7.4,65,0.00,,,0.00,WUHU216HW,2013-02-27 23:55:00,
2013-02-27 18:00:00,57.6,46.3,29.94,WSW,248,1.3,7.4,66,0.00,,,0.00,WUHU216HW,2013-02-28 00:00:00,
2013-02-27 18:05:00,57.4,46.1,29.94,NW,315,2.2,6.9,66,0.00,,,0.00,WUHU216HW,2013-02-28 00:05:00,
2013-02-27 18:10:00,57.4,46.1,29.94,SW,225,4.5,5.6,66,0.00,,,0.00,WUHU216HW,2013-02-28 00:10:00,
2013-02-27 18:15:00,57.4,46.1,29.95,NNW,338,2.9,6.5,66,0.00,,,0.00,WUHU216HW,2013-02-28 00:15:00,
2013-02-27 18:20:00,57.4,46.5,29.94,NNW,338,2.2,6.5,67,0.00,,,0.00,WUHU216HW,2013-02-28 00:20:00,
2013-02-27 18:25:00,57.6,46.7,29.94,NW,315,3.1,6.3,67,0.00,,,0.00,WUHU216HW,2013-02-28 00:25:00,
2013-02-27 18:30:00,57.6,46.7,29.94,WSW,248,1.6,4.7,67,0.00,,,0.00,WUHU216HW,2013-02-28 00:30:00,
2013-02-27 18:35:00,57.4,46.5,29.95,NNW,338,2.7,4.5,67,0.00,,,0.00,WUHU216HW,2013-02-28 00:35:00,
2013-02-27 18:40:00,57.4,46.5,29.95,NW,315,1.8,6.3,67,0.00,,,0.00,WUHU216HW,2013-02-28 00:40:00,
2013-02-27 18:45:00,57.4,46.5,29.95,NW,315,3.6,7.6,67,0.00,,,0.00,WUHU216HW,2013-02-28 00:45:00,
2013-02-27 18:50:00,57.6,46.7,29.95,North,0,2.0,7.6,67,0.00,,,0.00,WUHU216HW,2013-02-28 00:50:00,
2013-02-27 18:55:00,57.6,47.1,29.95,NW,315,3.1,5.4,68,0.00,,,0.00,WUHU216HW,2013-02-28 00:55:00,
2013-02-27 19:00:00,57.6,47.1,29.96,West,270,4.3,5.4,68,0.00,,,0.00,WUHU216HW,2013-02-28 01:00:00,
2013-02-27 19:05:00,57.8,47.3,29.95,WNW,293,4.0,4.5,68,0.00,,,0.00,WUHU216HW,2013-02-28 01:05:00,
2013-02-27 19:10:00,58.0,47.4,29.95,NNW,338,2.0,5.1,68,0.00,,,0.00,WUHU216HW,2013-02-28 01:10:00,
2013-02-27 19:15:00,58.0,47.4,29.95,WNW,293,3.1,5.8,68,0.00,,,0.00,WUHU216HW,2013-02-28 01:15:00,
2013-02-27 19:20:00,58.1,47.6,29.95,SW,225,1.8,5.8,68,0.00,,,0.00,WUHU216HW,2013-02-28 01:20:00,
2013-02-27 19:25:00,58.0,47.4,29.95,WNW,293,3.1,5.4,68,0.00,,,0.00,WUHU216HW,2013-02-28 01:25:00,
2013-02-27 19:30:00,58.0,47.4,29.95,NNW,338,4.0,5.8,68,0.00,,,0.00,WUHU216HW,2013-02-28 01:30:00,
2013-02-27 19:35:00,58.0,47.4,29.95,NNW,338,1.8,5.8,68,0.00,,,0.00,WUHU216HW,2013-02-28 01:35:00,
2013-02-27 19:40:00,58.0,47.4,29.95,West,270,4.5,7.4,68,0.00,,,0.00,WUHU216HW,2013-02-28 01:40:00,
2013-02-27 19:45:00,58.0,47.4,29.96,West,270,3.4,7.8,68,0.00,,,0.00,WUHU216HW,2013-02-28 01:45:00,
2013-02-27 19:50:00,58.1,47.6,29.96,WSW,248,5.8,7.8,68,0.00,,,0.00,WUHU216HW,2013-02-28 01:50:00,
2013-02-27 19:55:00,58.3,47.8,29.96,WNW,293,1.6,6.3,68,0.00,,,0.00,WUHU216HW,2013-02-28 01:55:00,
2013-02-27 20:00:00,58.3,47.8,29.96,NW,315,2.0,6.5,68,0.00,,,0.00,WUHU216HW,2013-02-28 02:00:00,
2013-02-27 20:05:00,58.1,47.6,29.95,NW,315,4.3,6.5,68,0.00,,,0.00,WUHU216HW,2013-02-28 02:05:00,
2013-02-27 20:10:00,58.1,48.0,29.96,WSW,248,2.2,5.4,69,0.00,,,0.00,WUHU216HW,2013-02-28 02:10:00,
2013-02-27 20:15:00,58.0,47.9,29.95,SW,225,1.6,4.5,69,0.00,,,0.00,WUHU216HW,2013-02-28 02:15:00,
2013-02-27 20:20:00,58.0,47.9,29.95,WNW,293,2.2,4.7,69,0.00,,,0.00,WUHU216HW,2013-02-28 02:20:00,
2013-02-27 20:25:00,58.0,48.2,29.96,WSW,248,2.5,6.0,70,0.00,,,0.00,WUHU216HW,2013-02-28 02:25:00,
2013-02-27 20:30:00,58.0,48.2,29.96,North,0,6.7,6.7,70,0.00,,,0.00,WUHU216HW,2013-02-28 02:30:00,
2013-02-27 20:35:00,58.1,48.4,29.96,SW,225,1.6,6.7,70,0.00,,,0.00,WUHU216HW,2013-02-28 02:35:00,
2013-02-27 20:40:00,58.3,48.6,29.95,NW,315,4.7,6.7,70,0.00,,,0.00,WUHU216HW,2013-02-28 02:40:00,
2013-02-27 20:45:00,58.3,48.6,29.95,WNW,293,4.9,5.1,70,0.00,,,0.00,WUHU216HW,2013-02-28 02:45:00,
2013-02-27 20:50:00,58.3,48.6,29.96,WSW,248,4.3,7.8,70,0.00,,,0.00,WUHU216HW,2013-02-28 02:50:00,
2013-02-27 20:55:00,58.3,48.6,29.95,NW,315,6.7,7.8,70,0.00,,,0.00,WUHU216HW,2013-02-28 02:55:00,
2013-02-27 21:00:00,58.3,48.6,29.96,SW,225,2.9,6.7,70,0.00,,,0.00,WUHU216HW,2013-02-28 03:00:00,
2013-02-27 21:05:00,58.3,49.0,29.96,SSW,203,2.0,6.7,71,0.00,,,0.00,WUHU216HW,2013-02-28 03:05:00,
2013-02-27 21:10:00,58.1,49.1,29.96,West,270,4.3,5.6,72,0.00,,,0.00,WUHU216HW,2013-02-28 03:10:00,
2013-02-27 21:15:00,58.1,49.1,29.96,WSW,248,4.9,5.6,72,0.00,,,0.00,WUHU216HW,2013-02-28 03:15:00,
2013-02-27 21:20:00,58.1,49.1,29.96,West,270,2.5,5.8,72,0.00,,,0.00,WUHU216HW,2013-02-28 03:20:00,
2013-02-27 21:25:00,58.1,49.1,29.96,SW,225,1.8,6.9,72,0.00,,,0.00,WUHU216HW,2013-02-28 03:25:00,
2013-02-27 21:30:00,58.1,49.1,29.96,NW,315,4.5,6.9,72,0.00,,,0.00,WUHU216HW,2013-02-28 03:30:00,
2013-02-27 21:35:00,58.1,49.1,29.96,WSW,248,1.8,7.4,72,0.00,,,0.00,WUHU216HW,2013-02-28 03:35:00,
2013-02-27 21:40:00,58.1,49.1,29.96,West,270,1.8,7.4,72,0.00,,,0.00,WUHU216HW,2013-02-28 03:40:00,
2013-02-27 21:45:00,58.3,49.3,29.96,NNW,338,2.7,6.5,72,0.00,,,0.00,WUHU216HW,2013-02-28 03:45:00,
2013-02-27 21:50:00,58.3,49.3,29.96,North,0,3.8,8.7,72,0.00,,,0.00,WUHU216HW,2013-02-28 03:50:00,
2013-02-27 21:55:00,58.3,49.3,29.96,NNE,23,1.8,8.7,72,0.00,,,0.00,WUHU216HW,2013-02-28 03:55:00,
2013-02-27 22:00:00,58.5,49.9,29.96,West,270,2.9,6.9,73,0.00,,,0.00,WUHU216HW,2013-02-28 04:00:00,
2013-02-27 22:05:00,58.7,49.7,29.95,NW,315,4.0,6.5,72,0.00,,,0.00,WUHU216HW,2013-02-28 04:05:00,
2013-02-27 22:10:00,58.7,49.7,29.95,WSW,248,2.9,8.7,72,0.00,,,0.00,WUHU216HW,2013-02-28 04:10:00,
2013-02-27 22:15:00,58.7,49.7,29.95,NW,315,4.7,8.7,72,0.00,,,0.00,WUHU216HW,2013-02-28 04:15:00,
2013-02-27 22:20:00,58.7,49.7,29.95,NW,315,1.6,6.5,72,0.00,,,0.00,WUHU216HW,2013-02-28 04:20:00,
2013-02-27 22:25:00,58.7,50.0,29.95,WNW,293,2.9,6.0,73,0.00,,,0.00,WUHU216HW,2013-02-28 04:25:00,
2013-02-27 22:30:00,58.5,49.9,29.95,WNW,293,3.4,6.0,73,0.00,,,0.00,WUHU216HW,2013-02-28 04:30:00,
2013-02-27 22:35:00,58.5,49.9,29.95,NNW,338,1.6,5.6,73,0.00,,,0.00,WUHU216HW,2013-02-28 04:35:00,
2013-02-27 22:40:00,58.5,49.9,29.95,West,270,2.5,5.8,73,0.00,,,0.00,WUHU216HW,2013-02-28 04:40:00,
2013-02-27 22:45:00,58.5,49.9,29.95,NNW,338,4.3,5.8,73,0.00,,,0.00,WUHU216HW,2013-02-28 04:45:00,
2013-02-27 22:50:00,58.5,49.5,29.94,NW,315,2.9,7.2,72,0.00,,,0.00,WUHU216HW,2013-02-28 04:50:00,
2013-02-27 22:55:00,58.5,49.9,29.94,NNW,338,2.7,7.2,73,0.00,,,0.00,WUHU216HW,2013-02-28 04:55:00,
2013-02-27 23:00:00,58.9,50.2,29.94,WNW,293,2.9,6.5,73,0.00,,,0.00,WUHU216HW,2013-02-28 05:00:00,
2013-02-27 23:05:00,58.9,49.9,29.94,NW,315,2.2,6.3,72,0.00,,,0.00,WUHU216HW,2013-02-28 05:05:00,
2013-02-27 23:10:00,58.7,49.7,29.94,WSW,248,6.0,6.0,72,0.00,,,0.00,WUHU216HW,2013-02-28 05:10:00,
2013-02-27 23:15:00,58.7,49.7,29.94,NW,315,4.3,7.8,72,0.00,,,0.00,WUHU216HW,2013-02-28 05:15:00,
2013-02-27 23:20:00,58.7,49.7,29.94,NW,315,7.6,7.8,72,0.00,,,0.00,WUHU216HW,2013-02-28 05:20:00,
2013-02-27 23:25:00,58.7,49.7,29.94,WNW,293,3.4,7.6,72,0.00,,,0.00,WUHU216HW,2013-02-28 05:25:00,
2013-02-27 23:30:00,58.9,49.9,29.94,NW,315,1.6,7.6,72,0.00,,,0.00,WUHU216HW,2013-02-28 05:30:00,
2013-02-27 23:35:00,58.9,49.9,29.94,North,0,5.4,7.6,72,0.00,,,0.00,WUHU216HW,2013-02-28 05:35:00,
2013-02-27 23:40:00,58.9,49.9,29.94,WNW,293,1.3,5.4,72,0.00,,,0.00,WUHU216HW,2013-02-28 05:40:00,
2013-02-27 23:45:00,58.9,49.9,29.94,NNW,338,6.3,6.3,72,0.00,,,0.00,WUHU216HW,2013-02-28 05:45:00,
2013-02-27 23:50:00,58.9,49.5,29.94,NNW,338,2.7,8.1,71,0.00,,,0.00,WUHU216HW,2013-02-28 05:50:00,
2013-02-27 23:55:00,58.9,49.5,29.94,NW,315,4.3,8.1,71,0.00,,,0.00,WUHU216HW,2013-02-28 05:55:00,